Date String (YYYY-MM-DD hh:mm:ss) UTC,Instrument flags,absolute air pressure of the measurement (hPa),sample flow rate (lpm),inlet stack bypass flow (lpm),air temperature of the measurement (°C),ambient temperature measured by the external sensor (°C),aerosol sample conditioner tube jacket temperature (°C),OPC LED temperature (°C),internal box temperature (°C),relative humidity of the measurement (%),span deviation,mass concentration of particles derived from Lorenz-Mie calculation of OPC scattering (μg/m³),mass concentration of particles derived from Lorenz-Mie calculation of OPC scattering (μg/m³),mass concentration of particles derived from Lorenz-Mie calculation of OPC scattering (μg/m³)
DateTimeUTC,F1_M11,P_M11,Q1_M11,Q2_M11,T1_M11,T2_M11,T3_M11,T4_M11,T5_M11,U1_M11,ZSPAN_M11,X2_M11,X0_M11,X1_M11
2024-05-11 22:00:00,SystemResetWarning,0825.7,5.01,000.00,024.7,024.2,000.0,032.6,026.7,021.4,0003.1,0008.33,0016.26,0007.43
2024-05-11 22:01:00,SystemResetWarning,0825.7,4.99,000.00,024.7,022.9,000.0,032.7,026.0,021.4,0002.8,0008.41,0016.63,0007.51
2024-05-11 22:02:00,SystemResetWarning,0825.7,5.01,000.00,024.2,021.0,000.0,032.8,024.9,021.8,0003.3,0008.50,0016.77,0007.59
2024-05-11 22:03:00,SystemResetWarning,0825.6,5.01,000.00,023.9,020.9,000.0,032.7,024.7,022.2,0003.3,0008.59,0017.70,0007.64
2024-05-11 22:04:00,SystemResetWarning,0825.7,5.00,000.00,023.9,021.4,000.0,032.6,024.9,022.6,0003.1,0008.67,0018.30,0007.70
2024-05-11 22:05:00,SystemResetWarning,0825.7,4.99,000.00,023.9,021.8,000.0,032.5,025.2,022.5,0003.2,0008.72,0018.57,0007.75
2024-05-11 22:06:00,SystemResetWarning,0825.7,5.00,000.00,023.9,022.3,000.0,032.4,025.5,022.2,0003.2,0008.73,0018.64,0007.80
2024-05-11 22:07:00,SystemResetWarning,0825.7,5.00,000.00,024.0,022.7,000.0,032.4,025.7,022.0,0003.2,0008.81,0019.19,0007.83
2024-05-11 22:08:00,SystemResetWarning,0825.8,5.01,000.00,024.1,023.0,000.0,032.3,025.9,022.3,0003.2,0008.87,0020.06,0007.87
2024-05-11 22:09:00,SystemResetWarning,0825.8,5.01,000.00,024.2,023.3,000.0,032.3,026.1,022.0,0003.3,0008.90,0020.47,0007.88
2024-05-11 22:10:00,SystemResetWarning,0825.8,5.00,000.00,024.3,023.5,000.0,032.3,026.2,021.4,0003.3,0008.89,0020.30,0007.85
2024-05-11 22:11:00,SystemResetWarning,0825.8,4.99,000.00,024.4,023.7,000.0,032.3,026.3,021.4,0003.1,0008.83,0019.54,0007.80
2024-05-11 22:12:00,SystemResetWarning,0825.8,5.00,000.00,024.4,023.9,000.0,032.4,026.4,021.1,0003.4,0008.79,0019.67,0007.75
2024-05-11 22:13:00,SystemResetWarning,0825.7,4.99,000.00,024.5,024.1,000.0,032.4,026.5,021.6,0003.2,0008.77,0021.24,0007.73
2024-05-11 22:14:00,SystemResetWarning,0825.7,5.00,000.00,024.6,024.2,000.0,032.5,026.6,021.6,0003.4,0008.73,0020.48,0007.71
2024-05-11 22:15:00,SystemResetWarning,0825.6,4.99,000.00,024.6,023.7,000.0,032.6,026.3,020.8,0003.6,0008.72,0019.81,0007.70
2024-05-11 22:16:00,SystemResetWarning,0825.5,5.00,000.00,024.3,021.6,000.0,032.6,025.2,021.3,0003.6,0008.74,0020.11,0007.72
2024-05-11 22:17:00,SystemResetWarning,0825.5,5.00,000.00,023.9,020.8,000.0,032.6,024.6,021.8,0003.6,0008.80,0021.70,0007.76
2024-05-11 22:18:00,SystemResetWarning,0825.5,5.02,000.00,023.8,021.2,000.0,032.6,024.8,022.0,0003.8,0008.77,0022.69,0007.75
2024-05-11 22:19:00,SystemResetWarning,0825.5,4.99,000.00,023.8,021.6,000.0,032.4,025.1,022.2,0003.7,0008.72,0022.05,0007.72
2024-05-11 22:20:00,SystemResetWarning,0825.5,5.00,000.00,023.8,022.1,000.0,032.3,025.3,022.5,0003.6,0008.72,0021.75,0007.71
2024-05-11 22:21:00,SystemResetWarning,0825.5,5.00,000.00,023.9,022.5,000.0,032.3,025.6,022.1,0003.5,0008.79,0022.77,0007.74
2024-05-11 22:22:00,SystemResetWarning,0825.5,5.00,000.00,024.0,022.8,000.0,032.2,025.7,022.2,0003.4,0008.82,0022.66,0007.78
2024-05-11 22:23:00,SystemResetWarning,0825.5,5.00,000.00,024.1,023.1,000.0,032.2,025.9,022.2,0003.3,0008.83,0022.17,0007.79
2024-05-11 22:24:00,SystemResetWarning,0825.5,5.00,000.00,024.2,023.4,000.0,032.2,026.1,022.2,0003.0,0008.84,0020.50,0007.78
2024-05-11 22:25:00,SystemResetWarning,0825.6,5.00,000.00,024.2,023.6,000.0,032.3,026.2,022.2,0002.4,0008.84,0020.10,0007.78
2024-05-11 22:26:00,SystemResetWarning,0825.6,5.00,000.00,024.3,023.8,000.0,032.3,026.3,022.2,0001.9,0008.84,0020.03,0007.76
2024-05-11 22:27:00,SystemResetWarning,0825.5,5.01,000.00,024.4,024.0,000.0,032.3,026.4,022.2,0001.3,0008.84,0019.06,0007.72
2024-05-11 22:28:00,SystemResetWarning,0825.5,5.00,000.00,024.5,024.1,000.0,032.4,026.5,021.8,0000.8,0008.83,0018.05,0007.67
2024-05-11 22:29:00,SystemResetWarning,0825.5,5.00,000.00,024.6,024.2,000.0,032.4,026.6,021.7,-000.1,0008.76,0016.23,0007.64
2024-05-11 22:30:00,SystemResetWarning,0825.5,4.99,000.00,024.7,024.3,000.0,032.5,026.6,021.6,-000.1,0008.69,0016.15,0007.56
2024-05-11 22:31:00,SystemResetWarning,0825.4,4.99,000.00,024.5,022.7,000.0,032.6,025.7,021.6,-000.0,0008.58,0016.08,0007.45
2024-05-11 22:32:00,SystemResetWarning,0825.3,5.02,000.00,024.2,021.8,000.0,032.6,025.2,021.9,-000.3,0008.44,0015.18,0007.35
2024-05-11 22:33:00,SystemResetWarning,0825.3,5.00,000.00,024.1,022.1,000.0,032.6,025.3,022.0,-000.1,0008.37,0015.55,0007.27
2024-05-11 22:34:00,SystemResetWarning,0825.3,5.00,000.00,024.1,022.4,000.0,032.5,025.5,022.0,-000.1,0008.26,0017.38,0007.16
2024-05-11 22:35:00,SystemResetWarning,0825.4,5.01,000.00,024.2,022.8,000.0,032.4,025.7,021.9,0000.4,0008.11,0016.94,0007.05
2024-05-11 22:36:00,SystemResetWarning,0825.3,5.00,000.00,024.2,023.1,000.0,032.4,026.0,021.7,0001.0,0007.95,0017.36,0006.94
2024-05-11 22:37:00,SystemResetWarning,0825.3,5.00,000.00,024.3,023.4,000.0,032.4,026.1,021.6,0001.0,0007.88,0017.47,0006.87
2024-05-11 22:38:00,SystemResetWarning,0825.3,5.00,000.00,024.4,023.6,000.0,032.4,026.3,021.7,0001.7,0007.80,0017.19,0006.83
2024-05-11 22:39:00,SystemResetWarning,0825.3,5.00,000.00,024.5,023.8,000.0,032.5,026.4,021.8,0002.4,0007.66,0016.84,0006.73
2024-05-11 22:40:00,SystemResetWarning,0825.3,5.00,000.00,024.6,024.0,000.0,032.5,026.5,021.4,0002.6,0007.56,0016.62,0006.65
2024-05-11 22:41:00,SystemResetWarning,0825.3,5.00,000.00,024.6,024.1,000.0,032.5,026.6,021.5,0002.7,0007.59,0016.47,0006.68
2024-05-11 22:42:00,SystemResetWarning,0825.3,5.00,000.00,024.7,024.3,000.0,032.6,026.7,021.5,0002.7,0007.55,0015.99,0006.69
2024-05-11 22:43:00,SystemResetWarning,0825.2,4.98,000.00,024.7,023.3,000.0,032.7,026.1,021.6,0002.9,0007.50,0015.80,0006.65
2024-05-11 22:44:00,SystemResetWarning,0825.2,5.00,000.00,024.2,021.2,000.0,032.7,024.9,021.8,0003.0,0007.48,0015.53,0006.63
2024-05-11 22:45:00,SystemResetWarning,0825.1,5.01,000.00,023.9,020.9,000.0,032.7,024.7,022.1,0002.9,0007.52,0014.95,0006.65
2024-05-11 22:46:00,SystemResetWarning,0825.1,5.01,000.00,023.8,021.4,000.0,032.6,024.9,022.1,0002.9,0007.54,0015.62,0006.67
2024-05-11 22:47:00,SystemResetWarning,0825.1,4.99,000.00,023.8,021.8,000.0,032.5,025.2,022.4,0002.6,0007.53,0015.05,0006.66
2024-05-11 22:48:00,SystemResetWarning,0825.1,5.00,000.00,023.9,022.2,000.0,032.4,025.4,021.9,0002.9,0007.44,0014.73,0006.61
2024-05-11 22:49:00,SystemResetWarning,0825.1,5.01,000.00,024.0,022.6,000.0,032.3,025.6,021.9,0002.7,0007.43,0015.29,0006.57
2024-05-11 22:50:00,SystemResetWarning,0825.1,4.99,000.00,024.0,022.9,000.0,032.3,025.8,021.4,0002.7,0007.43,0016.41,0006.57
2024-05-11 22:51:00,SystemResetWarning,0825.1,5.00,000.00,024.1,023.2,000.0,032.3,026.0,021.6,0002.6,0007.44,0017.35,0006.57
2024-05-11 22:52:00,SystemResetWarning,0825.1,5.00,000.00,024.2,023.4,000.0,032.3,026.1,021.7,0001.8,0007.35,0018.79,0006.45
2024-05-11 22:53:00,SystemResetWarning,0825.1,5.00,000.00,024.3,023.6,000.0,032.3,026.2,021.5,0001.4,0007.20,0018.53,0006.32
2024-05-11 22:54:00,SystemResetWarning,0825.1,5.00,000.00,024.4,023.8,000.0,032.3,026.3,021.5,0000.9,0007.11,0018.46,0006.23
2024-05-11 22:55:00,SystemResetWarning,0825.1,5.01,000.00,024.5,024.0,000.0,032.4,026.4,021.2,0000.8,0007.00,0018.38,0006.12
2024-05-11 22:56:00,SystemResetWarning,0825.1,5.01,000.00,024.5,024.1,000.0,032.4,026.5,021.4,0000.8,0006.80,0017.58,0005.99
2024-05-11 22:57:00,SystemResetWarning,0825.1,5.00,000.00,024.6,024.2,000.0,032.5,026.6,021.8,0000.2,0006.62,0015.80,0005.85
2024-05-11 22:58:00,SystemResetWarning,0825.1,5.00,000.00,024.7,024.3,000.0,032.5,026.7,021.3,0000.1,0006.46,0015.86,0005.69
2024-05-11 22:59:00,SystemResetWarning,0825.1,4.99,000.00,024.8,024.2,000.0,032.6,026.6,021.1,0000.0,0006.31,0016.65,0005.56
